This demonstration page uses our WeatherBlox Daily Observations layout. Learn more.

Left ArrowRight Arrow

53.62937, 11.41316

Hourly Observations for April 13, 2021

Temp ( °F °C ) Dew Point ( °F °C ) Humidity (%) Winds ( mph kmh ) Pressure ( in mb ) Visibility ( mi km ) Precip ( " mm )
5:50 am 05:50 Partly Cloudy 34 1 32 undefined 93 93 SW 8 13 30.27 1025 30 48 N/A
6:20 am 06:20 Partly Cloudy 34 1 32 undefined 93 93 SSW 7 11 30.30 1026 30 48 N/A
6:50 am 06:50 Partly Cloudy 34 1 32 undefined 93 93 SSW 6 9 30.30 1026 30 48 N/A
7:20 am 07:20 Partly Cloudy 34 1 32 undefined 93 93 SSW 7 11 30.30 1026 30 48 N/A
7:50 am 07:50 Mostly Cloudy 36 2 34 1 93 93 SSW 12 19 30.30 1026 30 48 N/A
8:20 am 08:20 Partly Cloudy 37 3 34 1 87 87 SW 12 19 30.30 1026 30 48 N/A
8:50 am 08:50 Mostly Cloudy 39 4 34 1 81 81 SW 12 19 30.33 1027 30 48 N/A
9:20 am 09:20 Mostly Cloudy 39 4 34 1 81 81 SW 12 19 30.33 1027 30 48 N/A
9:50 am 09:50 Mostly Cloudy 41 5 36 2 81 81 WSW 10 17 30.33 1027 30 48 N/A
10:20 am 10:20 Mostly Cloudy 43 6 36 2 76 76 SW 12 19 30.33 1027 30 48 N/A
10:50 am 10:50 Mostly Cloudy 45 7 36 2 71 71 SW 12 19 30.33 1027 30 48 N/A
11:20 am 11:20 Mostly Cloudy 46 8 34 1 62 62 SW 14 22 30.33 1027 30 48 N/A
11:50 am 11:50 Mostly Cloudy with Showers 37 3 34 1 87 87 W 8 13 30.33 1027 4 7 N/A
12:20 pm 12:20 Partly Cloudy with Showers Nearby 41 5 36 2 81 81 SW 6 9 30.33 1027 30 48 N/A
12:50 pm 12:50 Partly Cloudy with Showers Nearby 45 7 36 2 71 71 SSW 10 17 30.33 1027 30 48 N/A
1:20 pm 13:20 Partly Cloudy with Light Showers 45 7 32 undefined 61 61 VRB 7 11 30.33 1027 30 48 N/A
1:50 pm 13:50 Partly Cloudy with Light Showers 48 9 32 undefined 54 54 WSW 8 13 30.30 1026 30 48 N/A
2:20 pm 14:20 Partly Cloudy with Light Showers 45 7 36 2 71 71 VRB 10 17 30.33 1027 30 48 N/A
2:50 pm 14:50 Partly Cloudy with Showers Nearby 48 9 32 undefined 54 54 WSW 8 13 30.33 1027 30 48 N/A
3:20 pm 15:20 Partly Cloudy with Light Showers 48 9 32 undefined 54 54 WSW 10 17 30.33 1027 30 48 N/A
3:50 pm 15:50 Partly Cloudy with Light Showers 43 6 34 1 71 71 WSW 13 20 30.33 1027 30 48 N/A
4:20 pm 16:20 Partly Cloudy with Light Showers 46 8 34 1 62 62 W 7 11 30.33 1027 30 48 N/A
4:50 pm 16:50 Partly Cloudy with Light Showers 43 6 32 undefined 66 66 W 7 11 30.33 1027 30 48 N/A
5:20 pm 17:20 Partly Cloudy with Showers Nearby 43 6 32 undefined 66 66 WSW 9 15 30.33 1027 30 48 N/A
5:50 pm 17:50 Partly Cloudy with Showers Nearby 45 7 30 -1 57 57 WSW 7 11 30.33 1027 30 48 N/A
6:20 pm 18:20 Partly Cloudy with Showers Nearby 45 7 30 -1 57 57 W 9 15 30.33 1027 30 48 N/A
6:50 pm 18:50 Partly Cloudy 45 7 30 -1 57 57 WSW 8 13 30.33 1027 30 48 N/A
7:20 pm 19:20 Partly Cloudy 45 7 32 undefined 61 61 W 8 13 30.33 1027 30 48 N/A
7:50 pm 19:50 Mostly Sunny 43 6 30 -1 61 61 WSW 7 11 30.33 1027 30 48 N/A
8:20 pm 20:20 Mostly Clear 41 5 30 -1 66 66 WSW 8 13 30.36 1028 30 48 N/A
8:50 pm 20:50 Mostly Clear 41 5 28 -2 61 61 WSW 7 11 30.36 1028 30 48 N/A
9:20 pm 21:20 Mostly Clear 39 4 28 -2 65 65 WSW 6 9 30.36 1028 7 11 N/A
9:50 pm 21:50 Mostly Clear 39 4 28 -2 65 65 WSW 6 9 30.36 1028 7 11 N/A

Powered by AerisWeather